Location: Sternwarte_Laufen
(47.9344°N, 12.9346°E)
Time: 06:01:09
(UTC+01:00)

ISS - Pass Details

Date: 10 November 2018
Orbit: 402 x 408 km, 51.6° (Epoch: 16 November)

Event Time Altitude Azimuth Distance (km) Brightness Sun altitude
Exits shadow 04:25:47 22° 74° (ENE) 945 -1.3 -27.0°
Drops below altitude 10° 04:27:10 10° 85° (E) 1,464 0.0 -26.8°
Sets 04:29:19 0° 92° (E) 2,324 1.3 -26.4°
